Location: Ellingshausen
(50.5460°N, 10.4723°E)
Time: 12:18:55
(UTC+00:00)

Cosmos 676 Rocket - Pass Details

Date: 18 April 2026
Orbit: 750 x 779 km, 74.0° (Epoch: 19 May)

Event Time Altitude Azimuth Distance (km) Brightness Sun altitude
Rises 22:02:30 0° 338° (NNW) 3,268 8.6 -26.2°
Reaches altitude 10° 22:05:02 10° 346° (NNW) 2,334 7.5 -26.4°
Maximum altitude 22:10:03 42° 57° (ENE) 1,098 4.8 -26.6°
Enters shadow 22:10:35 41° 73° (ENE) 1,118 4.7 -26.7°
